Ord, NE

3:42 AM CDT on August 22, 2017 (GMT -0500)
Sharp

Weather History for KODX - September, 2011

Change the Weather History Date:

Saturday, September 17, 2011

  Actual Average Record
Temperature  
Mean Temperature 53 °F 63 °F  
Max Temperature 56 °F 78 °F 93 °F (2000)
Min Temperature 50 °F 48 °F 41 °F (2006)
Degree Days  
Heating Degree Days 12 4  
Month to date heating degree days 96 37  
Since 1 July heating degree days 96 51  
Cooling Degree Days 0 2  
Month to date cooling degree days 38 65  
Year to date cooling degree days 907 822  
Growing Degree Days 2 (Base 50)    
Moisture  
Dew Point 52 °F    
Average Humidity 93    
Maximum Humidity 100    
Minimum Humidity 86    
Precipitation  
Precipitation 0.01 in 0.08 in 0.72 in (1906)
Month to date precipitation 0.76 1.49  
Year to date precipitation 20.04 20.40  
Sea Level Pressure  
Sea Level Pressure 30.00 in    
Wind  
Wind Speed 8 mph (SE)    
Max Wind Speed 14 mph    
Max Gust Speed 18 mph    
Visibility 4 miles    
Events      
T = Trace of Precipitation, MM = Missing Value Source: NWS Daily Summary

Daily Weather History Graph

Daily Weather History Graph

Search for Another Location

Airport or City:

Trip Planner

Search our weather history database for the weather conditions in past years. The results will help you decide how hot, cold, wet, or windy it might be!

Date:

Astronomy

Sep. 17, 2011 Rise Set
Actual Time 7:17 AM CDT 7:42 PM CDT
Civil Twilight 6:50 AM CDT 8:09 PM CDT
Nautical Twilight 6:17 AM CDT 8:42 PM CDT
Astronomical Twilight 5:43 AM CDT 9:16 PM CDT
Moon 10:08 PM CDT (9/17) 12:26 PM CDT (9/17)
Length of Visible Light 13h 19m
Length of Day
12h 24m
Waning Gibbous, 76% of the Moon is Illuminated
Sep 17
Waning Gibbous
Sep 20
Last Quarter
Sep 27
New
Oct 3
First Quarter
Oct 11
Full

Hourly Weather History & Observations

Time (CDT) Temp. Dew Point Humidity Pressure Visibility Wind Dir Wind Speed Gust Speed Precip Events Conditions
12:53 AM 50.0 °F 48.0 °F 93% 30.09 in 7.0 mi SSE 6.9 mph - N/A   Overcast
1:53 AM 50.0 °F 48.2 °F 94% 30.06 in 6.0 mi SSE 9.2 mph - N/A   Overcast
2:53 AM 50.0 °F 48.0 °F 93% 30.06 in 8.0 mi SSE 8.1 mph - N/A   Overcast
3:53 AM 50.0 °F 48.0 °F 93% 30.05 in 8.0 mi SSE 9.2 mph - N/A   Overcast
4:53 AM 51.1 °F 48.9 °F 92% 30.04 in 7.0 mi SE 8.1 mph - N/A   Overcast
6:12 AM 51.8 °F 48.2 °F 88% 30.02 in 6.0 mi SSE 9.2 mph - N/A   Overcast
6:53 AM 51.1 °F 48.9 °F 92% 30.03 in 4.0 mi SE 11.5 mph - N/A   Overcast
7:53 AM 51.1 °F 48.9 °F 92% 30.03 in 3.0 mi SE 8.1 mph - N/A   Overcast
8:04 AM 51.8 °F 50.0 °F 94% 30.01 in 1.8 mi SE 8.1 mph - N/A   Overcast
8:22 AM 50.0 °F 50.0 °F 100% 30.01 in 0.8 mi SE 10.4 mph - N/A   Overcast
8:33 AM 50.0 °F 50.0 °F 100% 30.01 in 1.2 mi SSE 9.2 mph - N/A   Overcast
8:53 AM 51.1 °F 50.0 °F 96% 30.03 in 1.0 mi SE 6.9 mph - N/A   Overcast
9:06 AM 50.0 °F 50.0 °F 100% 30.01 in 1.2 mi SSE 8.1 mph - N/A   Overcast
9:17 AM 51.8 °F 50.0 °F 94% 30.01 in 3.0 mi SSE 10.4 mph - N/A   Overcast
9:36 AM 51.8 °F 50.0 °F 94% 30.01 in 2.0 mi SE 11.5 mph - N/A   Overcast
9:53 AM 51.1 °F 50.0 °F 96% 30.02 in 2.5 mi SE 9.2 mph - N/A   Overcast
10:20 AM 51.8 °F 50.0 °F 94% 30.01 in 1.5 mi SE 8.1 mph 17.3 mph 0.01 in   Overcast
10:38 AM 51.8 °F 50.0 °F 94% 30.01 in 1.0 mi SE 9.2 mph - 0.01 in   Overcast
10:50 AM 51.8 °F 50.0 °F 94% 30.01 in 1.5 mi SE 13.8 mph - 0.01 in   Overcast
11:12 AM 51.8 °F 51.8 °F 100% 30.01 in 2.0 mi SE 10.4 mph - N/A   Overcast
11:40 AM 51.8 °F 51.8 °F 100% 30.01 in 4.0 mi SSE 11.5 mph - N/A   Overcast
11:53 AM 53.1 °F 51.1 °F 93% 30.03 in 4.0 mi SSE 9.2 mph - N/A   Overcast
12:53 PM 53.6 °F 51.8 °F 94% 29.99 in 7.0 mi SE 8.1 mph - N/A   Overcast
1:53 PM 55.0 °F 52.0 °F 89% 29.99 in 8.0 mi SSE 11.5 mph - N/A   Overcast
2:28 PM 55.4 °F 51.8 °F 88% 29.97 in 10.0 mi SSE 11.5 mph - N/A   Overcast
2:53 PM 55.0 °F 52.0 °F 89% 29.98 in 10.0 mi SSE 10.4 mph - N/A   Overcast
3:53 PM 55.0 °F 53.1 °F 93% 29.96 in 3.0 mi SE 11.5 mph - N/A   Overcast
4:01 PM 55.4 °F 53.6 °F 94% 29.95 in 2.5 mi SSE 10.4 mph - N/A   Overcast
4:08 PM 55.4 °F 53.6 °F 94% 29.95 in 3.0 mi SSE 8.1 mph - N/A   Overcast
4:19 PM 53.6 °F 53.6 °F 100% 29.95 in 1.8 mi SE 11.5 mph - N/A   Overcast
4:49 PM 55.4 °F 53.6 °F 94% 29.95 in 2.0 mi SE 10.4 mph 17.3 mph N/A   Overcast
4:53 PM 55.0 °F 53.1 °F 93% 29.96 in 2.5 mi SSE 9.2 mph 17.3 mph N/A   Overcast
5:34 PM 55.4 °F 53.6 °F 94% 29.94 in 3.0 mi SE 10.4 mph - N/A   Overcast
5:53 PM 55.0 °F 54.0 °F 96% 29.95 in 2.5 mi SSE 6.9 mph - N/A   Overcast
6:09 PM 55.4 °F 53.6 °F 94% 29.94 in 1.5 mi SE 6.9 mph - N/A   Overcast
6:53 PM 55.0 °F 54.0 °F 96% 29.96 in 1.2 mi SSE 8.1 mph - N/A   Overcast
7:43 PM 55.4 °F 53.6 °F 94% 29.95 in 2.5 mi SE 6.9 mph - N/A   Overcast
7:53 PM 55.0 °F 54.0 °F 96% 29.96 in 2.5 mi SE 6.9 mph - N/A   Overcast
8:53 PM 55.0 °F 54.0 °F 96% 29.97 in 2.5 mi SE 6.9 mph - N/A   Overcast
9:10 PM 55.4 °F 53.6 °F 94% 29.96 in 3.0 mi SE 5.8 mph - N/A   Overcast
9:20 PM 55.4 °F 53.6 °F 94% 29.96 in 2.5 mi SE 8.1 mph - N/A   Overcast
9:49 PM 55.4 °F 53.6 °F 94% 29.97 in 3.0 mi SE 5.8 mph - N/A   Overcast
9:53 PM 55.0 °F 54.0 °F 96% 29.99 in 3.0 mi SSE 5.8 mph - N/A   Overcast
10:53 PM 55.0 °F 55.0 °F 100% 30.01 in 3.0 mi South 6.9 mph - N/A   Overcast
11:53 PM 55.9 °F 55.0 °F 97% 30.01 in 4.0 mi SE 4.6 mph - N/A   Overcast